FW2617 Weather Reports


time (UTC)temp
C
wind
direction
speed
KPH
gust
KPH
rain 1hr
cm
rain 24hr
cm
rain mn
cm
humidity
%
barometer
mb
20260504002703 23 163 9.7 24.1 0.00 0.00 0.00 43 1013.2
20260504001824 24 166 9.7 22.5 0.00 0.00 0.00 42 1013.4
20260504000904 24 164 11.3 25.7 0.00 0.00 0.00 41 1013.5
20260504000003 25 165 9.7 20.9 0.00 0.00 0.00 40 1013.5
20260503235403 25 159 12.9 25.7 0.00 0.00 0.00 39 1013.5
20260503234503 25 165 9.7 25.7 0.00 0.00 0.00 40 1013.5
20260503233602 26 168 9.7 24.1 0.00 0.00 0.00 38 1013.5
20260503232703 26 171 8.0 20.9 0.00 0.00 0.00 38 1013.6
20260503231803 26 169 9.7 22.5 0.00 0.00 0.00 38 1013.7
20260503230903 26 165 9.7 24.1 0.00 0.00 0.00 37 1013.8
20260503230024 26 165 11.3 27.4 0.00 0.00 0.00 36 1013.8
20260503225403 26 167 9.7 24.1 0.00 0.00 0.00 36 1014.0
20260503224503 26 164 12.9 27.4 0.00 0.00 0.00 37 1014.0
20260503223624 26 164 11.3 24.1 0.00 0.00 0.00 37 1013.9
20260503222703 27 170 11.3 22.5 0.00 0.00 0.00 36 1014.0
20260503221803 27 168 11.3 20.9 0.00 0.00 0.00 35 1014.0
20260503220903 27 167 11.3 22.5 0.00 0.00 0.00 35 1014.2
20260503220024 27 170 9.7 19.3 0.00 0.00 0.00 37 1014.2
20260503215403 27 173 9.7 20.9 0.00 0.00 0.00 35 1014.3
20260503214503 27 181 11.3 29.0 0.00 0.00 0.00 35 1014.4
20260503213603 27 171 9.7 27.4 0.00 0.00 0.00 36 1014.6
20260503212703 27 189 9.7 22.5 0.00 0.00 0.00 37 1014.8
20260503211803 27 176 11.3 22.5 0.00 0.00 0.00 34 1014.9
20260503210902 27 207 8.0 17.7 0.00 0.00 0.00 35 1014.9
20260503210003 27 188 9.7 25.7 0.00 0.00 0.00 35 1015.2
20260503205403 27 183 9.7 22.5 0.00 0.00 0.00 36 1015.3
20260503204524 27 173 11.3 22.5 0.00 0.00 0.00 35 1015.5
20260503203602 27 185 6.4 17.7 0.00 0.00 0.00 38 1015.6
20260503202703 27 185 8.0 17.7 0.00 0.00 0.00 36 1015.9
20260503201824 27 183 9.7 25.7 0.00 0.00 0.00 36 1016.0
20260503200903 28 195 6.4 14.5 0.00 0.00 0.00 37 1016.1
20260503200002 27 183 8.0 19.3 0.00 0.00 0.00 38 1016.2
20260503195403 27 180 8.0 19.3 0.00 0.00 0.00 39 1016.3
20260503194504 27 189 8.0 20.9 0.00 0.00 0.00 37 1016.5
20260503193603 27 179 9.7 22.5 0.00 0.00 0.00 38 1016.6
20260503192703 27 180 8.0 19.3 0.00 0.00 0.00 37 1016.7
20260503191803 27 190 9.7 22.5 0.00 0.00 0.00 41 1017.1
20260503190924 26 180 9.7 20.9 0.00 0.00 0.00 42 1017.1
20260503190003 27 181 9.7 24.1 0.00 0.00 0.00 43 1017.3
20260503185402 26 171 11.3 24.1 0.00 0.00 0.00 42 1017.4
20260503184503 26 187 9.7 20.9 0.00 0.00 0.00 42 1017.5
20260503183603 26 181 8.0 19.3 0.00 0.00 0.00 42 1017.6
20260503182703 26 187 9.7 17.7 0.00 0.00 0.00 41 1017.7
20260503181803 26 232 6.4 20.9 0.00 0.00 0.00 41 1017.8
20260503180902 26 193 8.0 17.7 0.00 0.00 0.00 42 1018.1
20260503180003 26 194 8.0 17.7 0.00 0.00 0.00 44 1018.2
20260503175403 26 196 8.0 19.3 0.00 0.00 0.00 44 1018.3
20260503174503 26 199 8.0 19.3 0.00 0.00 0.00 44 1018.4
20260503173603 25 190 9.7 19.3 0.00 0.00 0.00 45 1018.6
20260503172702 25 215 6.4 14.5 0.00 0.00 0.00 47 1018.7
20260503171803 25 206 8.0 19.3 0.00 0.00 0.00 47 1018.9
20260503170924 25 201 8.0 16.1 0.00 0.00 0.00 49 1019.1
20260503150925 20 206 9.7 17.7 0.00 0.00 0.00 63 1019.7
20260503130904 13 211 3.2 9.7 0.00 0.00 0.00 82 1019.3
20260503080904 14 193 1.6 4.8 0.00 0.00 0.00 75 1017.9
20260503072704 14 217 1.6 4.8 0.00 0.00 0.00 72 1018.2
20260503071804 15 217 0.0 4.8 0.00 0.00 0.00 72 1018.2
20260503070903 15 216 0.0 3.2 0.00 0.00 0.00 71 1018.3
20260503054504 15 210 3.2 6.4 0.00 0.00 0.00 70 1018.4
20260503053604 15 202 1.6 8.0 0.00 0.00 0.00 70 1018.4
20260503052704 15 0 0.0 0.0 0.00 0.00 0.00 71 1018.3
20260503051804 15 0 0.0 0.0 0.00 0.00 0.00 70 1018.1
20260503050903 15 268 0.0 3.2 0.00 0.00 0.00 69 1018.2
20260503050004 15 0 0.0 0.0 0.00 0.00 0.00 69 1018.0
20260503045404 15 0 0.0 0.0 0.00 0.00 0.00 70 1018.1
20260503044504 16 0 0.0 0.0 0.00 0.00 0.00 69 1018.1
20260503043604 16 0 0.0 0.0 0.00 0.00 0.00 69 1018.0
20260503042704 16 0 0.0 0.0 0.00 0.00 0.00 67 1018.0
20260503041803 16 0 0.0 0.0 0.00 0.00 0.00 68 1018.0
20260503040904 16 0 0.0 0.0 0.00 0.00 0.00 68 1018.2
20260503040003 16 0 0.0 0.0 0.00 0.00 0.00 67 1018.1
20260503035404 17 0 0.0 0.0 0.00 0.00 0.00 66 1018.1
20260503034503 17 0 0.0 0.0 0.00 0.00 0.00 67 1018.0
20260503033604 17 0 0.0 0.0 0.00 0.00 0.00 65 1018.1
20260503032703 17 0 0.0 0.0 0.00 0.00 0.00 63 1018.1
20260503031804 17 0 0.0 0.0 0.00 0.00 0.00 64 1018.0
20260503030903 18 0 0.0 0.0 0.00 0.00 0.00 63 1018.0
20260503030004 18 0 0.0 0.0 0.00 0.00 0.00 61 1017.9
20260503025403 18 0 0.0 0.0 0.00 0.00 0.00 61 1017.8
20260503024504 18 0 0.0 0.0 0.00 0.00 0.00 60 1017.7
20260503023603 18 0 0.0 0.0 0.00 0.00 0.00 59 1017.7
20260503022703 19 0 0.0 0.0 0.00 0.00 0.00 57 1017.5
20260503021825 19 0 0.0 0.0 0.00 0.00 0.00 56 1017.5
20260503020903 20 0 0.0 0.0 0.00 0.00 0.00 55 1017.4
20260503020003 20 0 0.0 0.0 0.00 0.00 0.00 54 1017.3
20260503015404 20 268 1.6 4.8 0.00 0.00 0.00 54 1017.2
20260503014504 21 268 1.6 3.2 0.00 0.00 0.00 52 1017.2
20260503013604 21 268 1.6 3.2 0.00 0.00 0.00 50 1017.1
20260503012703 22 268 1.6 3.2 0.00 0.00 0.00 48 1017.1
20260503011824 22 268 0.0 3.2 0.00 0.00 0.00 47 1017.1
20260503010904 23 268 0.0 3.2 0.00 0.00 0.00 44 1017.1
20260503010003 23 268 0.0 1.6 0.00 0.00 0.00 41 1017.0
20260503005403 23 268 0.0 1.6 0.00 0.00 0.00 42 1017.0
20260503004524 24 268 0.0 1.6 0.00 0.00 0.00 39 1017.1
20260503003604 24 268 1.6 3.2 0.00 0.00 0.00 38 1017.0